Weather History for Burlington, CO

Change the Weather History Date:

Sunday, October 14, 2012

  Actual Average Record
Temperature  
Mean Temperature 57 °F 52 °F  
Max Temperature 71 °F 66 °F 92 °F (1958)
Min Temperature 43 °F 37 °F 21 °F (1966)
Degree Days  
Heating Degree Days 8    
Growing Degree Days 8 (Base 50)    
Moisture  
Dew Point 35 °F    
Average Humidity 52    
Maximum Humidity 79    
Minimum Humidity 24    
Precipitation  
Precipitation 0.00 in 0.03 in 1.10 in (1957)
Month to date precipitation 0.12 0.54  
Year to date precipitation 10.42 15.83  
Sea Level Pressure  
Sea Level Pressure 30.09 in    
Wind  
Wind Speed 13 mph (WNW)    
Max Wind Speed 21 mph    
Max Gust Speed 29 mph    
Visibility 10 miles    
Events      
T = Trace of Precipitation, MM = Missing Value Source: NWS Daily Summary

Daily Weather History Graph

Daily Weather History Graph

Search for Another Location

Airport:

Trip Planner

Search our weather history database for the weather conditions in past years. The results will help you decide how hot, cold, wet, or windy it might be!

Date:

Astronomy

Oct. 14, 2012 Rise Set
Actual Time 6:58 AM MDT 6:10 PM MDT
Civil Twilight 6:31 AM MDT 6:37 PM MDT
Nautical Twilight 6:00 AM MDT 7:08 PM MDT
Astronomical Twilight 5:29 AM MDT 7:39 PM MDT
Moon 6:00 AM MDT (10/14) 5:32 PM MDT (10/14)
Length of Visible Light 12h 06m
Length of Day
11h 12m
Waning Crescent, 1% of the Moon is Illuminated
Oct 14
Waning Crescent
Oct 15
New
Oct 21
First Quarter
Oct 29
Full
Nov 6
Last Quarter

Hourly Weather History & Observations

Time (MDT) Temp. Windchill Dew Point Humidity Pressure Visibility Wind Dir Wind Speed Gust Speed Precip Events Conditions
12:53 AM 52.0 °F - 39.9 °F 63% 29.95 in 10.0 mi NW 12.7 mph - N/A   Scattered Clouds
1:53 AM 51.1 °F - 39.9 °F 66% 29.98 in 10.0 mi NW 12.7 mph - N/A   Clear
2:53 AM 50.0 °F - 37.9 °F 63% 30.04 in 10.0 mi NW 13.8 mph - N/A   Clear
3:53 AM 48.0 °F - 37.9 °F 68% 30.05 in 10.0 mi NW 11.5 mph - N/A   Scattered Clouds
4:53 AM 45.0 °F 39.3 °F 36.0 °F 71% 30.08 in 10.0 mi NW 11.5 mph - N/A   Clear
5:53 AM 46.0 °F 40.6 °F 39.0 °F 76% 30.11 in 10.0 mi WNW 11.5 mph - N/A   Clear
6:53 AM 44.1 °F 38.1 °F 37.9 °F 79% 30.14 in 10.0 mi WNW 11.5 mph - N/A   Clear
7:53 AM 48.0 °F - 39.0 °F 71% 30.16 in 10.0 mi NW 12.7 mph - N/A   Clear
8:53 AM 54.0 °F - 39.0 °F 57% 30.15 in 10.0 mi NW 16.1 mph - N/A   Clear
9:53 AM 61.0 °F - 39.0 °F 44% 30.15 in 10.0 mi NW 18.4 mph 27.6 mph N/A   Clear
10:53 AM 64.9 °F - 37.0 °F 36% 30.15 in 10.0 mi NNW 18.4 mph 25.3 mph N/A   Clear
11:53 AM 66.9 °F - 33.1 °F 28% 30.14 in 10.0 mi NW 20.7 mph 27.6 mph N/A   Clear
12:53 PM 69.1 °F - 32.0 °F 25% 30.11 in 10.0 mi NW 20.7 mph 28.8 mph N/A   Clear
2:53 PM 71.1 °F - 32.0 °F 24% 30.06 in 10.0 mi NNW 15.0 mph - N/A   Partly Cloudy
3:53 PM 70.0 °F - 33.1 °F 26% 30.07 in 10.0 mi NNW 13.8 mph 24.2 mph N/A   Clear
4:53 PM 69.1 °F - 32.0 °F 25% 30.07 in 10.0 mi NW 16.1 mph - N/A   Clear
5:53 PM 63.0 °F - 32.0 °F 31% 30.09 in 10.0 mi WNW 5.8 mph - N/A   Clear
6:53 PM 57.0 °F - 32.0 °F 39% 30.11 in 10.0 mi NW 3.5 mph - N/A   Clear
7:53 PM 48.9 °F - 32.0 °F 52% 30.12 in 10.0 mi SW 6.9 mph - N/A   Clear
8:53 PM 46.9 °F - 32.0 °F 56% 30.12 in 10.0 mi WSW 8.1 mph - N/A   Clear
9:53 PM 48.9 °F - 33.1 °F 54% 30.10 in 10.0 mi WSW 9.2 mph - N/A   Clear
10:53 PM 46.0 °F 41.4 °F 34.0 °F 63% 30.09 in 10.0 mi WSW 9.2 mph - N/A   Clear
11:53 PM 45.0 °F 40.6 °F 35.1 °F 68% 30.08 in 10.0 mi WSW 8.1 mph - N/A   Clear